User: anonymous   Login
Location: Carnetin
(48.9010°N, 2.7059°E)
Time: 16:28:59
(UTC+00:00)
Language:

CZ-4 R/B - Orbit

View from above orbital plane
View from above orbital plane
View from above satellite
View from above satellite

Ground track
Ground track

The orbit data is extracted from the following two-line orbital elements,

1 29507U 06046C   22024.65975906  .00000221  00000-0  21773-4 0  9995
2 29507  97.7497  55.2895 0045710 351.5339   8.5109 15.01299098833290
Epoch (UTC): 24 January 2022 15:50:03
Eccentricity: 0.0045710
inclination: 97.7497°
perigee height: 531 km
apogee height: 594 km
right ascension of ascending node: 55.2895°
argument of perigee: 351.5339°
revolutions per day: 15.01299098
mean anomaly at epoch: 8.5109°
orbit number at epoch: 83329

The dashed part of the orbit path shows where the satellite is in the earth's shadow,  

DLR